Location: Cicognara
(44.9500°N, 10.4667°E)
Time: 22:18:45
(UTC+00:00)

Cosmos 1459 Rocket - Pass Details

Date: 20 June 2021
Orbit: 936 x 1000 km, 83.0° (Epoch: 23 July)

Event Time Altitude Azimuth Distance (km) Brightness Sun altitude
Rises 20:49:16 0° 348° (NNW) 3,608 8.3 -13.5°
Reaches altitude 10° 20:51:47 10° 344° (NNW) 2,659 7.5 -13.7°
Maximum altitude 20:57:41 57° 268° (W) 1,093 4.4 -14.3°
Enters shadow 21:03:30 10° 191° (S) 2,622 5.8 -14.9°
